FW7254 Weather Reports


Display with metric or nautical units.
time (UTC)temp
F
wind
direction
speed
MPH
gust
MPH
rain 1hr
in
rain 24hr
in
rain mn
in
humidity
%
barometer
mb
20260507021818 75 109 2.0 0.0 0.00 0.00 0.00 69 1011.9
20260507020323 75 116 3.0 0.0 0.00 0.00 0.00 67 1012.0
20260507014816 76 107 1.0 0.0 0.00 0.00 0.00 65 1012.2
20260507013315 76 107 0.0 0.0 0.00 0.00 0.00 63 1012.3
20260507011829 76 109 0.0 0.0 0.00 0.00 0.00 64 1012.7
20260507010357 76 110 0.0 0.0 0.00 0.00 0.00 65 1012.7
20260507004817 75 110 0.0 0.0 0.00 0.00 0.00 66 1012.7
20260507003343 74 110 0.0 0.0 0.00 0.00 0.00 67 1012.9
20260507001830 73 110 0.0 0.0 0.00 0.00 0.00 68 1013.2
20260507000317 72 110 0.0 0.0 0.00 0.00 0.00 69 1013.2
20260506234817 71 110 0.0 0.0 0.00 0.00 0.00 73 1013.4
20260506233329 68 110 0.0 0.0 0.00 0.00 0.00 75 1013.7
20260506231830 67 110 0.0 0.0 0.00 0.00 0.00 77 1013.7
20260506230315 67 110 0.0 0.0 0.00 0.00 0.00 77 1013.9
20260506224843 66 110 0.0 0.0 0.00 0.00 0.00 79 1014.0
20260506223326 66 110 0.0 0.0 0.00 0.00 0.00 81 1014.0
20260506221814 65 110 0.0 0.0 0.00 0.00 0.00 83 1014.4
20260506220317 64 110 0.0 0.0 0.00 0.00 0.00 84 1014.4
20260506214824 63 110 0.0 0.0 0.00 0.00 0.00 85 1014.6
20260506213330 62 110 0.0 0.0 0.00 0.00 0.00 88 1014.6
20260506211818 62 110 0.0 0.0 0.00 0.00 0.00 89 1014.6
20260506210325 61 110 0.0 0.0 0.00 0.00 0.00 90 1014.7
20260506204825 61 110 0.0 0.0 0.00 0.00 0.00 91 1014.6
20260506203330 61 110 0.0 0.0 0.00 0.00 0.00 91 1014.5
20260506201819 61 110 0.0 0.0 0.00 0.00 0.00 92 1014.4
20260506200323 61 110 0.0 0.0 0.00 0.00 0.00 91 1014.3
20260506194832 61 110 0.0 0.0 0.00 0.00 0.00 91 1014.3
20260506193331 62 110 0.0 0.0 0.00 0.00 0.00 91 1014.5
20260506191817 62 110 0.0 0.0 0.00 0.00 0.00 91 1014.7
20260506190323 62 110 0.0 0.0 0.00 0.00 0.00 91 1014.9
20260506184835 63 110 0.0 0.0 0.00 0.00 0.00 91 1015.0
20260506183321 63 110 0.0 0.0 0.00 0.00 0.00 91 1015.1
20260506181821 63 110 0.0 0.0 0.00 0.00 0.00 90 1014.8
20260506180328 63 110 0.0 0.0 0.00 0.00 0.00 90 1014.9
20260506174835 63 110 0.0 0.0 0.00 0.00 0.00 90 1015.1
20260506173320 63 110 0.0 0.0 0.00 0.00 0.00 90 1015.1
20260506171824 63 110 0.0 0.0 0.00 0.00 0.00 90 1015.3
20260506170329 63 110 0.0 0.0 0.00 0.00 0.00 90 1015.2
20260506164839 63 110 0.0 0.0 0.00 0.00 0.00 90 1015.6
20260506163337 63 110 0.0 0.0 0.00 0.00 0.00 90 1015.6
20260506161823 63 110 0.0 0.0 0.00 0.00 0.00 90 1015.7
20260506160350 64 110 0.0 0.0 0.00 0.00 0.00 90 1015.7
20260506154817 64 110 0.0 0.0 0.00 0.00 0.00 90 1015.9
20260506153323 64 110 0.0 0.0 0.00 0.00 0.00 90 1016.0
20260506151827 64 110 0.0 0.0 0.00 0.00 0.00 90 1016.3
20260506150314 64 110 0.0 0.0 0.00 0.00 0.00 90 1016.5
20260506144821 64 110 0.0 0.0 0.00 0.00 0.00 90 1016.7
20260506143327 64 110 0.0 0.0 0.00 0.00 0.00 90 1016.9
20260506141814 64 110 0.0 0.0 0.00 0.00 0.00 90 1016.8
20260506140321 64 110 0.0 0.0 0.00 0.00 0.00 90 1016.8
20260506134821 64 110 0.0 0.0 0.00 0.00 0.00 90 1017.1
20260506133327 64 110 0.0 0.0 0.00 0.00 0.00 90 1017.0
20260506131828 64 110 0.0 0.0 0.00 0.00 0.00 90 1017.3
20260506130311 64 109 1.0 0.0 0.00 0.00 0.00 91 1017.3
20260506124837 64 110 1.0 0.0 0.00 0.00 0.00 90 1017.1
20260506123340 64 110 1.0 0.0 0.00 0.00 0.00 90 1017.3
20260506121829 64 111 0.0 0.0 0.00 0.00 0.00 90 1017.5
20260506120314 64 113 2.0 0.0 0.00 0.00 0.00 90 1017.2
20260506114842 64 114 4.0 0.0 0.00 0.00 0.00 90 1017.2
20260506113324 64 115 2.0 0.0 0.00 0.00 0.00 89 1017.5
20260506111815 64 118 0.0 0.0 0.00 0.00 0.00 87 1017.5
20260506110319 64 118 1.0 0.0 0.00 0.00 0.00 86 1017.4
20260506104828 65 119 2.0 0.0 0.00 0.00 0.00 83 1017.4
20260506103324 65 119 0.0 0.0 0.00 0.00 0.00 82 1017.6
20260506101831 65 120 0.0 0.0 0.00 0.00 0.00 81 1017.6
20260506100318 65 121 0.0 0.0 0.00 0.00 0.00 80 1017.5
20260506094845 65 121 2.0 0.0 0.00 0.00 0.00 81 1017.4
20260506093349 66 129 0.0 0.0 0.00 0.00 0.00 80 1017.5
20260506091836 66 135 0.0 0.0 0.00 0.00 0.00 79 1017.6
20260506090316 66 136 0.0 0.0 0.00 0.00 0.00 80 1017.6
20260506084824 66 134 0.0 0.0 0.00 0.00 0.00 79 1017.5
20260506083330 66 142 0.0 0.0 0.00 0.00 0.00 79 1017.6
20260506081830 66 140 0.0 0.0 0.00 0.00 0.00 79 1017.5
20260506080314 67 115 0.0 0.0 0.00 0.00 0.00 78 1017.7
20260506073351 67 113 0.0 0.0 0.00 0.00 0.00 75 1017.9
20260506071816 67 131 0.0 0.0 0.00 0.00 0.00 75 1017.9
20260506070341 68 110 0.0 0.0 0.00 0.00 0.00 75 1017.9
20260506061816 69 109 0.0 0.0 0.00 0.00 0.00 72 1018.0
20260506060322 68 113 1.0 0.0 0.00 0.00 0.00 71 1018.0
20260506050322 68 116 0.0 0.0 0.00 0.00 0.00 71 1018.5
20260506044829 68 146 0.0 0.0 0.00 0.00 0.00 71 1018.9
20260506043318 68 249 0.0 0.0 0.00 0.00 0.00 70 1018.9
20260506041824 69 101 0.0 0.0 0.00 0.00 0.00 70 1019.0
20260506040330 68 228 0.0 0.0 0.00 0.00 0.00 69 1019.2
20260506034831 68 107 1.0 0.0 0.00 0.00 0.00 68 1019.3
20260506033336 69 126 0.0 0.0 0.00 0.00 0.00 68 1019.6
20260506031843 68 92 1.0 0.0 0.00 0.00 0.00 67 1019.6
20260506030328 69 82 1.0 0.0 0.00 0.00 0.00 67 1019.7
20260506024836 69 105 2.0 0.0 0.00 0.00 0.00 67 1019.9
20260506023320 69 137 0.0 0.0 0.00 0.00 0.00 67 1020.0